Location: Ammerl�gen
(47.2167°N, 9.6000°E)
Time: 10:03:08
(UTC+00:00)

OBJECT-B - Pass Details

Date: 21 April 2021
Orbit: 415 x 424 km, 97.0° (Epoch: 25 April)

Event Time Altitude Azimuth Distance (km) Brightness Sun altitude
Exits shadow 19:05:03 - 166° (SSE) 2,211 4.0 -8.0°
Reaches altitude 10° 19:06:41 10° 167° (SSE) 1,499 3.2 -8.2°
Maximum altitude 19:09:54 89° 102° (ESE) 428 0.8 -8.7°
Drops below altitude 10° 19:13:09 10° 348° (NNW) 1,519 4.2 -9.2°
Sets 19:15:10 0° 348° (NNW) 2,391 5.2 -9.5°
